Location: *
(45.5667°S, 177.5167°W)
Time: 22:19:26
(UTC+00:00)

Cosmos 192 - Pass Details

Date: 29 May 2022
Orbit: 701 x 712 km, 74.0° (Epoch: 24 June)

Event Time Altitude Azimuth Distance (km) Brightness Sun altitude
Rises 05:03:05 0° 338° (NNW) 3,098 8.4 -7.9°
Reaches altitude 10° 05:05:23 10° 337° (NNW) 2,189 7.6 -8.3°
Maximum altitude 05:10:21 82° 248° (WSW) 734 4.5 -9.1°
Drops below altitude 10° 05:15:23 10° 160° (SSE) 2,224 6.5 -9.9°
Enters shadow 05:17:25 - 159° (SSE) 3,022 7.2 -10.3°
